Погода в Нижнем Алькееве

Россия / Республика Татарстан     54°46′43″N   50°02′03″E
темп.,
°C
ветер,
м/с
пор.,
м/с
влажн.,
%
обл.,
%
осадки,
мм/ч
давл.,
гПа
погр.,
м
25 мая, ср
ср2500:00+4зсз229317 0.0 100732
03:00+3сз3594100 0.0 100898
06:00+5сз2493100 0.9 1008393
09:00+7зсз3477100 1.1 10081023
12:00+8сз4567100 0.1 10091320
15:00+9сз466295 0.3 10101426
18:00+9зсз46676 0.1 1011619
21:00+4зюз35835 0.1 101268
26 мая, чт
чт2600:00+3зюз37915 0.0 1013132
03:00+2зюз36955 0.0 1014106
06:00+6зюз36815 0.0 1015281
09:00+10юз46606 0.0 10141473
12:00+12юз685783 0.3 10141859
15:00+12ююз796298 0.5 10131596
18:00+11ююз5107165 0.1 1012817
21:00+8ю5137989 0.1 1012378
27 мая, пт
пт2700:00+9ю61574100 0.0 1010530
03:00+9ю51574100 0.0 1008529
06:00+9ююв61483100 0.1 1006501
09:00+10ю81593100 1.1 1005924
12:00+14ю8148587 0.8 10031476
15:00+15ююз7128499 3.0 10031234
18:00+14ююз612876 1.9 1002647
21:00+10ююз411965 2.4 1003318
28 мая, сб
сб2800:00+8ююз41096100 0.0 1005268
03:00+7юз39975 0.0 1007193
06:00+10ююз5109297 0.0 1008343
09:00+15ююз797599 0.0 10081096
12:00+17ююз81166100 0.1 10081453
15:00+15ююз81675100 0.3 10081247
18:00+14юз61489100 0.6 1009861
21:00+13юз61394100 1.6 1010618
29 мая, вс
вс2900:00+12юз41195100 0.4 1012422
03:00+9ююз38977 0.4 1014170
06:00+12юз489071 0.0 1016299
09:00+16юз5870100 0.0 10171045
12:00+11зсз4789100 0.3 1019358
15:00+10зюз2692100 0.5 1019307
18:00+10юз2797100 1.3 1020305
21:00+10юз2596100 1.4 1021155